Main page
Satellite images Climate Cyclones Lightning AirportsFAQ Languages Contact Newsletter About
Weather : Europe Africa North America South America Asia Australia-Oceania Others

udon-thani-th, Udon Thani, Udon Thani International Airport

48354

latitude: , longitude: Thailand, elevation: 17-23N m


METAR: VTUD 240500Z 17004KT 130V240 9999 TS FEW018CB SCT038 31/24 Q1010 TEMPO FM0530 TL0630 3000 TSRA